CAPE
1430 1885 2140 2352 2325 2224 2003 2204 1847 1701 1526 1479 1548 1615 1613 1663 1589 1632 1388 1261 1241 1114 1125 848 1097 1119 1236 1253 1472 1587 1556 1534 1503 1436 1253 1181 1111 1033 982 971 907 832 728 712 890 885 869 1025 1140 1207 1226 1146 916 804 869 773 538 371 396 385 373 409 441 206 152 108 8 16 35 2 128 215 629 698 588 801 637 676 788 938 859 814 863 994 1111
1493 2036 2397 2365 2168 2092 2230 1929 1755 1634 1750 1679 1509 1505 1659 1640 1579 1470 1449 1270 1063 1343 1416 1101 1013 1072 1155 1252 1347 1423 1444 1485 1512 1338 1299 1260 1207 1136 1285 1337 1130 1126 1155 1092 1159 1386 1453 1429 1375 1347 1402 1358 1449 1450 1211 949 532 444 501 577 588 525 559 567 357 154 109 1 2 9 182 292 676 674 602 718 835 684 817 947 959 747 819 950 940
1489 2236 2309 2273 2253 2333 2054 1820 1651 1943 1868 1535 1496 1562 1625 1601 1568 1620 1621 1252 1194 1087 1126 1104 1103 1157 1283 1250 1429 1492 1504 1569 1620 1562 1471 1483 1593 1769 1913 1719 1261 963 1005 1160 1246 1171 1415 1406 1382 1376 1517 1460 1302 1438 1214 695 624 598 628 612 593 825 917 878 645 324 234 475 302 208 70 95 371 572 744 789 787 812 730 959 941 804 848 881 794
1773 2198 2204 2272 2342 2004 2007 1959 1950 1924 1504 1452 1676 1657 1608 1515 1729 1711 1459 1270 1200 1201 1292 1208 1238 1368 1405 1412 1424 1459 1522 1616 1770 1814 1883 1972 1989 2148 2015 1827 1457 1164 985 844 844 903 1053 1012 1007 1060 1202 1325 1362 1207 1224 943 697 700 696 727 903 862 809 779 608 266 206 354 365 191 185 7 187 442 610 744 815 845 892 869 809 841 769 733 888
1778 2156 2120 2117 1918 1975 2044 1918 1910 1627 1554 1656 1479 1577 1735 1798 1665 1632 1598 1435 1305 1140 1295 1336 1367 1348 1285 1284 1273 1296 1380 1547 1745 1835 2080 2152 2148 2003 1914 2007 1724 1364 932 694 595 612 596 672 912 1013 1102 1270 1385 1355 1373 1195 1017 766 770 779 751 1053 794 626 654 426 140 197 292 74 0 0 27 180 558 745 715 603 688 788 725 735 769 620 694
1892 2098 1970 1762 1793 1979 2024 1919 1622 1469 1500 1428 1422 1614 1535 1741 1546 1547 1885 1703 1580 1558 1428 1390 1388 1366 1312 1263 1318 1520 1571 1527 1717 1987 2182 2067 1997 1983 1811 1592 1291 1072 1177 1052 1147 1056 855 853 884 983 1177 1236 1278 1274 1232 1195 1261 1176 1098 975 816 949 979 1238 705 487 153 336 322 13 1 7 0 66 339 633 581 480 492 524 423 536 607 434 548
1922 1912 1728 1664 1741 1825 1926 1927 1659 1393 1580 1468 1498 1746 1809 1674 1764 1886 1966 1914 1741 1713 1550 1515 1479 1426 1369 1371 1418 1614 1688 1842 2048 2157 2198 2146 2053 1686 1257 1136 1192 1179 1034 985 1027 888 865 800 935 1161 1200 1282 1344 1255 1271 1249 1193 1184 1132 1095 1123 1086 1236 1195 832 500 458 124 0 9 11 8 34 29 267 306 300 414 383 352 302 353 432 390 403
1804 1793 1688 1631 1603 1894 1975 1970 1696 1843 1680 1792 1851 1783 1976 1778 1976 1930 1927 1769 1738 1728 1664 1622 1567 1520 1504 1562 1561 1548 1643 1764 1826 2032 2044 2158 1933 1740 1527 1236 1121 1112 1125 1050 1003 1023 1001 1063 1099 1187 1321 1411 1344 1218 1150 1133 1147 1161 1118 1276 1134 1100 1199 1352 879 496 409 13 15 11 1 0 29 154 242 160 169 169 285 270 208 202 591 569 557
1746 1722 1723 1555 1616 1965 2044 1976 1923 1995 2032 1978 1925 1819 1898 1937 1876 1872 1938 1730 1744 1708 1656 1594 1630 1572 1564 1576 1619 1616 1731 1752 1816 1906 2040 2042 1866 1847 2089 2227 2049 1204 1041 984 996 1005 1039 1161 1245 1300 1375 1351 1207 1272 1269 1319 1386 1323 1178 1116 1234 1330 1364 1488 1068 535 321 114 73 9 1 0 0 4 35 67 74 212 184 206 232 82 251 329 352
1685 1741 1642 1448 1735 2082 1969 1962 2072 2053 1962 1967 1960 1911 1842 1833 1861 1912 1826 1767 1656 1581 1508 1461 1474 1523 1510 1569 1656 1644 1635 1688 1754 1841 2026 1992 1873 1652 1488 1558 1396 1211 1029 976 1086 1094 1193 1321 1342 1219 1115 1326 1432 1253 1463 1492 1322 1144 1052 1482 1583 1427 1651 1624 623 391 230 100 50 16 50 130 0 7 36 8 5 13 11 9 820 377 207 281 260
1664 1671 1528 1592 1861 1935 1912 2055 2095 1988 1976 1948 1807 1855 1907 1974 1931 1903 1796 1713 1532 1568 1475 1437 1612 1550 1602 1678 1618 1578 1571 1623 1663 1888 2002 1855 1756 1638 1333 1156 1211 1219 1081 1106 1105 1060 1193 1353 1303 1187 1345 1404 1389 1350 1383 1412 1252 1048 1409 1784 1416 959 1012 596 362 381 276 275 149 95 416 389 22 22 49 141 115 57 55 210 182 203 214 208 202
1663 1649 1697 1762 1950 1794 2002 2126 1976 1925 1917 1866 1777 1971 1892 1821 1868 1783 1633 1506 1560 1449 1416 1595 1710 1628 1711 1748 1614 1585 1656 1694 1859 1841 1683 1599 1466 1294 1493 1994 1793 1444 1472 1252 1159 1106 1297 1457 1463 1333 1247 1296 1305 1425 1470 1405 1252 1163 1702 1917 1157 702 576 400 354 424 450 358 249 150 33 7 22 176 275 83 71 120 140 176 212 181 168 163 153
1648 1784 1867 1823 1770 1914 2062 2044 1938 1935 1946 1884 1967 1927 1936 1909 1784 1616 1493 1577 1515 1273 1620 1640 1764 1842 1757 1751 1786 1850 1923 1903 1789 1706 1645 1516 1366 1328 1654 1931 1898 1685 1540 1337 1242 1188 1334 1407 1445 1340 1249 1323 1502 1587 1502 1412 1237 1240 1793 2049 1001 620 552 439 420 511 525 505 395 139 53 39 106 214 219 353 246 164 122 102 74 164 226 273 306
1696 1888 1879 1731 1764 2091 2058 1944 2010 2048 1922 1785 1844 1870 1933 1840 1709 1712 1654 1691 1666 1747 1805 1837 1832 1777 1924 1969 2053 2084 1975 1816 1709 1635 1585 1507 1398 1416 1679 1838 1854 1719 1646 1516 1333 1293 1255 1317 1305 1307 1287 1180 1310 1552 1540 1432 1267 1411 1832 2044 1235 698 702 744 710 637 624 496 465 149 78 140 189 385 342 321 294 240 177 136 100 100 121 132 137
1701 1838 1748 1714 1920 1968 2171 2010 2008 1992 1938 1812 1842 1912 1863 1790 1801 1774 1697 1755 1840 1889 1844 1757 1825 1854 1774 1905 2003 2053 1951 1748 1675 1596 1535 1502 1536 1642 1708 1807 1771 1719 1666 1678 1447 1254 1260 1239 1232 1195 1229 1258 1406 1432 1458 1379 1208 1534 1859 1813 1220 737 657 618 676 690 681 720 701 430 169 253 452 181 178 201 210 166 135 182 119 74 90 72 78
1709 1775 1760 1707 1726 1821 1992 2125 2054 1968 1948 1904 1888 1903 1824 1784 1833 1811 1778 1848 1857 1803 1834 1862 1878 1809 1866 1918 1987 1891 1813 1713 1664 1602 1540 1475 1562 1660 1720 1793 1754 1687 1628 1634 1546 1379 1326 1249 1192 1219 1250 1277 1312 1405 1369 1344 1238 1404 1761 1847 1233 781 674 668 708 755 798 776 669 642 334 355 698 393 282 206 153 153 96 82 78 89 86 66 37
1687 1710 1809 1800 1730 1807 1913 1680 1709 1918 1844 1814 1866 1891 1829 1798 1846 1884 1875 1842 1779 1810 1846 1846 1785 1814 1869 1904 1926 1953 1909 1804 1701 1667 1600 1601 1692 1766 1774 1732 1641 1593 1530 1577 1526 1408 1283 1225 1212 1248 1269 1243 1243 1186 1261 1292 1195 1400 1784 1966 1346 936 829 694 744 795 783 738 724 552 288 154 300 416 275 196 219 171 124 82 63 57 51 16 8
1686 1720 1766 1779 1752 1766 1693 1664 1561 1603 1678 1850 1923 1818 1719 1877 1797 1780 1815 1852 1897 1922 1885 1851 1817 1859 1919 1907 1939 1930 1962 1856 1792 1776 1824 1830 1801 1776 1732 1642 1502 1474 1490 1424 1317 1336 1260 1176 1136 1170 1168 1140 1059 1075 1185 1223 1189 1324 1742 1917 1334 936 901 723 736 744 738 894 692 583 412 398 508 375 302 219 198 206 175 159 148 112 73 36 11
1695 1687 1693 1713 1801 1752 1633 1616 1588 1616 1574 1544 1602 1740 1850 1754 1756 1822 1813 1851 1924 1917 1862 1762 1823 1835 1852 1840 1908 1995 1986 1935 1881 1876 1831 1808 1799 1784 1657 1556 1459 1393 1355 1260 1324 1325 1283 1121 1107 1073 1093 956 928 1057 1135 1196 1198 1193 1459 1643 1367 1013 927 639 668 721 757 656 564 497 593 769 440 268 356 332 255 224 138 104 129 120 70 58 57
1639 1672 1721 1752 1781 1674 1551 1588 1561 1477 1450 1419 1462 1622 1567 1833 1831 1816 1806 1853 1832 1814 1829 1805 1884 1812 1821 1782 1555 1612 1586 1626 1602 1722 1840 1764 1691 1602 1585 1474 1383 1291 1191 1225 1353 1270 1222 1157 1026 1000 946 939 950 1016 1060 1176 1185 1245 1309 1693 1267 1053 530 584 683 706 618 543 500 506 748 664 635 621 401 256 239 226 201 170 161 156 134 81 46
1527 1580 1655 1700 1683 1664 1573 1534 1455 1405 1355 1324 1444 1459 1645 1867 1748 1788 1796 1807 1753 1756 1793 1952 1788 1714 1422 1370 1522 1558 1622 1655 1719 1670 1844 1748 1663 1566 1492 1467 1325 1230 1267 1293 1244 1196 1057 938 951 743 993 836 866 955 858 805 818 1196 1323 1573 1057 590 544 569 670 603 516 599 586 566 800 721 694 542 555 468 307 252 188 171 196 192 175 163 157
1368 1446 1640 1638 1652 1602 1587 1503 1413 1296 1233 1290 1377 1484 1551 1626 1549 1719 1732 1659 1677 1700 1653 1681 1527 1439 1290 1397 1428 1499 1587 1558 1623 1689 1634 1731 1536 1547 1462 1402 1318 1274 1266 1156 1032 967 957 893 702 766 571 518 640 25 441 479 629 737 1120 774 748 684 580 592 542 447 432 477 567 867 820 737 670 613 564 432 300 246 242 220 217 258 250 174 150
1328 1431 1529 1564 1557 1522 1504 1350 1295 1293 1229 1248 1394 1543 1478 1425 1512 1536 1551 1601 1658 1482 1515 1498 1446 1362 1434 1366 1305 1371 1474 1573 1541 1601 1671 1574 1618 1493 1445 1331 1268 1199 1095 1013 896 748 712 610 615 705 722 669 284 0 246 354 647 677 866 771 763 652 523 507 445 448 437 478 626 984 898 866 685 637 734 662 559 381 334 330 269 237 225 189 158
1372 1470 1474 1456 1474 1448 1404 1317 1261 1226 1158 1233 1343 1364 1348 1397 1408 1383 1427 1439 1271 1258 1283 1331 1302 1280 1232 1131 1208 1338 1472 1534 1629 1790 1791 1586 1502 1529 1418 1318 1155 1062 1158 1169 994 910 870 669 622 460 429 326 69 0 0 230 670 685 702 721 740 615 466 434 402 402 398 945 748 923 753 722 728 703 798 807 678 499 348 312 314 251 215 168 175
1252 1325 1384 1415 1426 1389 1294 1232 1117 1056 1055 1134 1179 1217 1282 1287 1252 1278 1281 1160 1043 1030 1091 1145 1167 1088 972 990 1169 1296 1420 1562 1438 1427 1383 1347 1347 1310 1240 1041 895 800 498 392 340 404 339 299 385 449 434 374 249 204 173 334 622 664 701 675 695 570 434 406 398 356 580 812 918 1027 911 1028 758 800 850 864 764 542 465 383 282 258 206 189 160
1236 1258 1338 1351 1363 1238 1200 1073 927 894 929 987 952 1083 1154 1112 1143 1138 1074 921 791 817 902 1016 1057 944 839 997 1124 1185 1308 1544 1279 1265 1292 1312 1251 1165 1082 957 869 744 568 538 382 283 194 362 454 382 353 309 205 142 133 352 553 624 667 728 625 447 423 440 417 534 692 830 1120 1090 1147 1167 940 862 900 974 836 522 449 357 309 260 219 172 158
1069 1200 1262 1219 1180 1125 1063 915 822 791 795 827 828 998 1020 976 984 1006 824 692 716 706 733 735 858 931 870 979 1018 1019 1188 1471 1247 1211 1231 1241 1124 1068 1055 953 889 749 555 365 324 262 218 385 352 344 303 183 141 0 0 323 507 490 584 564 821 752 590 482 576 681 718 881 1221 1122 1354 1266 1134 904 960 886 912 724 596 390 270 252 238 210 185
1132 1156 1197 1133 1073 1006 930 816 757 718 715 770 770 894 904 852 854 777 645 600 609 432 364 418 728 797 816 906 964 1013 1187 1360 1198 1088 1121 1144 1064 1045 1046 916 853 796 631 418 1 139 272 339 354 304 255 167 125 3 0 143 409 398 507 689 809 802 695 591 700 755 810 952 1172 1418 1405 1353 1228 1095 862 892 973 644 440 410 339 292 262 182 144
1090 1103 1154 1132 1040 868 782 731 699 694 639 702 714 800 774 674 634 547 605 694 275 34 368 399 496 740 743 825 893 999 1156 1283 1170 952 987 1078 1044 1031 970 905 667 427 156 4 168 0 122 331 294 250 193 6 1 9 18 210 240 329 390 663 746 691 636 712 800 847 914 1033 949 1185 1444 1429 1316 1144 890 836 960 702 486 463 373 283 225 199 172
1114 1031 1124 1129 1008 850 729 660 692 688 607 671 696 724 608 473 436 490 731 704 477 376 405 451 472 561 575 686 836 884 1005 1087 1022 939 959 955 902 843 820 565 386 0 0 94 326 0 0 1 15 27 28 4 2 74 195 295 321 347 435 562 626 658 622 799 869 896 933 915 786 1095 1293 1055 1225 1122 1044 973 1018 795 524 590 336 258 236 212 174
1178 1029 1061 1104 1029 834 706 651 650 681 701 708 718 701 477 78 406 534 720 646 632 492 433 481 536 596 559 664 798 845 920 963 939 975 958 906 767 677 605 484 360 215 464 372 99 0 0 0 10 14 10 0 0 1 21 332 390 377 464 519 585 605 688 798 864 878 820 780 817 992 1146 933 1100 1232 1141 1083 857 566 447 566 385 294 247 228 225
1257 1149 1035 1115 1052 831 789 726 726 718 732 693 728 659 397 323 65 557 718 720 757 678 594 524 534 556 631 597 770 901 948 910 895 899 914 840 773 652 548 449 367 493 815 579 482 0 42 148 112 64 10 0 0 0 0 0 0 343 388 446 495 531 690 757 779 763 699 647 734 784 706 859 1241 1178 1099 964 892 663 381 333 464 393 286 301 249
1309 1224 1140 1110 1068 980 854 864 832 767 689 646 674 650 517 424 394 480 694 700 814 817 772 726 655 615 642 698 674 881 958 952 896 860 768 583 590 534 461 359 311 872 809 736 559 336 381 226 71 6 0 0 0 0 0 0 59 83 247 357 400 547 672 707 634 660 633 548 579 610 570 684 872 934 902 1085 880 730 466 172 437 631 611 548 212
1366 1321 1286 1195 1214 1078 983 891 872 850 718 650 661 756 656 552 466 498 674 618 812 890 828 818 792 774 742 674 598 879 942 877 896 842 674 716 819 764 718 655 773 933 818 865 876 728 562 91 53 34 225 0 0 0 0 0 5 32 74 273 418 514 631 629 541 529 471 525 499 478 435 462 546 605 982 1237 1002 916 404 274 420 932 852 659 407
1460 1468 1416 1352 1316 1190 1021 933 871 894 796 780 726 780 777 695 607 565 669 635 814 987 937 844 794 794 778 772 650 867 1091 1097 841 850 839 929 990 1082 1057 979 978 979 957 1044 1107 962 609 345 99 0 0 0 0 14 0 0 10 57 78 238 415 473 539 604 580 838 573 462 449 450 415 345 396 378 128 550 996 817 576 578 668 1040 926 319 593
1644 1640 1573 1502 1327 1269 1102 1059 959 1043 970 891 788 808 859 846 743 668 711 719 848 1041 1027 940 993 1032 894 843 905 785 984 1218 1107 996 988 924 951 1014 1075 1038 1067 1045 997 1037 1017 1009 885 588 459 58 0 232 1 0 0 6 43 84 81 138 252 495 518 600 701 632 446 545 384 414 370 293 244 475 474 78 447 754 859 956 1195 1461 947 765 594
1806 1804 1710 1500 1368 1269 1270 1124 1071 1109 1063 998 801 839 880 838 813 796 745 816 900 1069 1121 1111 1130 1132 1099 933 938 990 1041 1160 1116 988 833 785 964 973 1010 1092 1091 1025 979 940 898 966 896 686 483 347 271 243 141 3 0 2 33 52 31 36 343 528 611 584 528 406 900 458 339 336 301 424 1208 829 459 513 528 690 1149 1417 1435 1286 1043 668 605
1808 1768 1608 1524 1422 1308 1263 1187 1115 1211 1158 977 874 901 888 867 785 708 723 816 932 1136 1225 1257 1226 1157 1065 860 892 987 1120 1200 1057 965 918 867 743 826 1032 1087 992 995 904 916 876 919 668 804 401 0 2 252 55 141 18 30 140 62 51 56 308 511 646 601 632 510 448 316 340 261 407 766 708 322 497 686 700 779 683 571 539 493 646 445 405
1443 1549 1578 1515 1436 1398 1361 1260 1223 1346 1153 1076 970 957 927 839 750 728 695 800 985 1183 1299 1282 1282 1124 826 846 942 1056 1107 1076 971 936 884 730 599 804 1050 970 811 786 856 903 802 732 692 756 347 1 0 206 54 1 26 192 234 250 305 326 332 385 519 574 505 461 388 405 363 257 381 602 602 342 411 640 698 617 484 336 384 312 612 409 364
1374 1123 1542 1484 1513 1454 1416 1347 1332 1336 1271 1227 1132 1052 945 903 818 818 793 930 1107 1229 1289 1335 1156 900 1004 1106 1163 1144 1109 1006 998 978 867 739 679 668 926 920 872 833 782 748 623 613 672 518 0 27 12 11 354 375 345 221 274 278 315 350 393 425 509 619 585 506 353 329 224 215 208 514 463 422 439 549 663 527 340 294 347 464 347 371 379
1151 1392 1489 1523 1522 1539 1439 1415 1368 1353 1327 1268 1239 1155 1028 928 904 891 935 999 1170 1278 1344 1053 987 1127 1272 1288 1253 1190 1161 1100 1047 956 827 737 686 685 815 871 831 741 692 596 568 538 449 141 2 0 2 14 254 428 412 332 0 321 356 399 403 423 462 549 557 494 564 411 318 257 350 387 476 470 423 405 419 339 350 493 369 278 274 258 188
1238 1328 1337 1363 1452 1526 1503 1450 1394 1345 1352 1304 1339 1274 1035 911 913 934 929 913 1068 1198 1095 1018 1213 1314 1358 1351 1271 1217 1108 1021 958 836 749 730 700 664 736 830 780 647 601 511 486 498 477 434 0 0 0 1 0 454 396 63 0 123 291 369 404 431 428 444 391 524 516 398 416 471 530 448 570 570 498 458 347 302 318 351 281 268 238 99 0
1268 1314 1376 1390 1412 1464 1475 1420 1340 1373 1362 1308 1262 1236 1022 910 866 858 814 897 1098 1056 1024 1282 1393 1412 1290 1274 1250 1163 1026 953 859 804 800 811 690 534 694 794 730 580 568 614 490 437 490 378 5 0 0 0 3 389 454 485 175 120 0 0 244 272 254 411 379 370 382 413 328 433 443 463 458 535 401 408 410 316 268 251 275 272 78 0 0
1207 1386 1379 1374 1428 1476 1463 1360 1320 1325 1350 1324 1239 1083 1012 1033 900 916 957 967 975 859 981 1207 1394 1316 1187 1200 1191 1082 1022 931 846 854 835 828 607 524 635 720 622 474 499 614 538 450 584 412 8 4 0 10 0 144 489 445 65 14 101 20 136 143 180 374 438 336 334 340 264 263 426 513 398 245 252 469 316 387 304 331 345 292 105 0 0
1145 1321 1382 1388 1418 1450 1487 1456 1417 1365 1413 1373 1219 1181 1129 1037 953 862 954 903 827 926 1046 1134 1126 1036 961 968 1034 1025 951 854 774 762 807 737 533 533 552 542 491 439 507 484 520 428 468 525 508 224 0 0 0 0 0 0 0 2 0 0 0 88 146 245 278 215 246 282 350 396 296 365 332 110 310 276 159 152 295 297 210 0 0 0 0
1194 1263 1448 1470 1446 1461 1446 1410 1399 1395 1460 1402 1457 1328 1007 909 831 736 749 800 780 966 984 923 880 815 737 717 819 903 848 764 810 806 763 585 562 591 615 569 587 534 555 478 389 400 457 525 650 592 22 0 0 0 27 0 0 0 15 0 16 19 35 163 180 42 192 269 299 311 308 268 216 302 268 286 287 318 315 196 146 0 0 0 0
1250 1328 1428 1488 1380 1381 1365 1442 1529 1503 1474 1520 1484 1230 930 880 758 657 668 683 699 778 797 774 737 692 676 642 745 806 775 731 756 704 630 562 605 652 620 613 712 711 673 526 476 499 622 735 745 771 699 278 0 133 2 0 4 0 339 586 700 440 0 0 0 76 112 206 265 232 337 332 253 227 291 282 251 269 228 196 60 0 0 0 0
1111 1283 1421 1461 1361 1319 1315 1418 1500 1461 1462 1455 1317 1005 843 832 661 563 550 545 602 708 746 710 664 647 524 406 554 740 744 704 669 640 616 621 656 664 588 496 596 647 581 631 579 583 756 792 744 832 792 539 440 411 428 395 64 4 424 622 580 384 13 0 0 0 80 236 157 186 214 241 208 247 345 340 279 192 0 0 0 0 0 0 0
935 1220 1386 1456 1497 1502 1452 1420 1391 1394 1340 1236 1022 876 822 721 568 467 498 556 655 707 697 638 531 453 298 216 299 588 738 706 624 622 670 651 658 651 573 548 541 544 618 840 789 687 714 662 725 805 745 722 581 429 429 425 83 10 530 448 484 221 0 0 0 0 0 0 35 153 133 129 150 167 323 259 1 0 0 0 0 0 0 0 0
1094 1279 1452 1443 1527 1484 1344 1308 1302 1264 1168 1066 988 878 787 669 542 470 554 654 653 560 533 446 392 327 278 229 310 437 570 631 582 549 480 459 422 452 508 620 681 585 654 872 910 816 796 747 718 837 821 833 581 457 421 428 437 452 558 377 246 0 0 0 0 0 0 0 0 4 51 28 138 154 231 81 0 0 0 0 0 0 0 0 0
1024 1287 1412 1436 1532 1490 1370 1214 1164 1089 1039 1018 892 735 700 647 591 558 632 570 262 302 460 431 288 296 305 264 111 40 190 105 58 0 44 50 53 54 136 396 575 624 764 824 829 815 824 842 799 799 828 758 598 462 438 346 374 525 514 383 111 0 0 0 0 0 0 0 0 0 44 4 70 110 160 40 0 0 0 0 0 0 0 0 0
Wind_Speed
28 30 31 35 36 38 40 38 39 40 40 40 38 38 37 38 40 40 40 40 39 38 36 35 34 33 32 32 32 32 34 35 36 35 35 35 34 34 35 34 32 30 29 29 29 28 28 29 28 28 27 27 26 25 24 24 25 25 24 25 25 24 23 21 21 21 nan nan nan nan 18 19 22 21 21 22 21 21 20 19 17 12 8 10 16
32 32 34 37 40 40 39 40 40 41 40 39 38 37 38 39 40 41 40 40 39 38 36 36 35 35 33 32 33 34 35 35 35 35 34 33 33 34 34 33 32 30 29 30 29 27 28 29 28 27 27 26 25 24 23 23 25 25 24 23 23 23 23 21 20 19 20 nan nan nan 19 19 21 21 22 22 22 21 21 21 20 11 6 15 17
35 35 36 40 44 43 42 41 40 39 37 38 38 37 38 38 40 40 40 39 38 37 35 35 35 35 33 33 33 34 35 35 35 34 34 32 32 33 33 32 30 29 29 29 28 27 27 27 27 26 26 25 24 23 23 24 24 24 23 23 23 23 22 20 19 17 18 18 18 18 nan nan 20 21 24 23 23 22 22 22 20 15 11 19 16
39 37 39 43 47 45 43 42 40 39 38 37 38 38 39 40 40 40 39 38 37 36 35 34 34 34 33 33 34 34 35 36 35 34 33 31 32 32 31 30 30 29 28 28 27 26 26 27 26 26 25 24 22 23 22 22 23 22 22 22 22 22 22 20 17 16 16 16 16 14 10 nan 12 19 21 23 24 22 22 22 21 20 20 18 19
41 40 40 41 42 45 44 43 41 42 40 39 38 40 41 41 41 40 38 36 36 35 35 34 34 33 33 34 34 34 33 33 33 33 32 31 30 32 31 29 29 30 29 27 27 27 27 27 26 25 24 22 21 22 22 22 22 22 21 20 21 22 21 18 16 14 14 14 14 nan nan nan nan 16 21 22 23 23 23 23 22 20 20 20 18
43 42 42 42 43 46 47 44 44 45 42 41 40 40 41 42 41 39 37 36 35 35 34 34 33 33 34 34 35 34 33 33 33 32 30 29 27 31 31 29 29 28 28 27 26 27 26 27 26 25 24 22 21 21 21 21 21 20 17 16 17 13 11 14 14 14 13 12 12 nan nan nan nan nan 18 21 21 20 21 22 20 20 20 19 18
46 43 43 44 44 47 48 45 46 45 43 41 41 40 41 41 39 38 36 35 35 35 34 33 33 33 34 34 36 36 35 33 30 32 31 28 24 26 28 27 28 28 29 27 27 27 27 26 25 24 23 22 21 21 22 21 20 18 16 15 12 9 10 11 13 14 12 9 nan nan nan nan nan nan 17 16 18 20 20 20 19 20 19 17 18
45 45 46 46 46 49 49 45 45 45 43 42 41 41 40 40 38 37 36 35 33 34 34 33 34 34 34 35 37 37 37 34 31 30 29 25 24 25 25 27 28 28 28 27 27 27 26 26 25 24 23 21 21 21 21 21 19 17 15 13 10 8 7 9 12 13 12 nan nan nan nan nan nan 12 17 17 17 18 19 21 19 18 21 20 19
47 48 49 49 48 53 49 44 43 44 42 41 41 40 40 38 37 36 35 34 34 33 34 34 35 35 35 37 37 37 37 35 32 29 26 25 25 24 23 23 24 28 29 27 25 24 25 25 24 24 23 21 21 20 21 20 18 16 14 11 9 7 8 9 13 14 8 6 nan nan nan nan nan nan nan nan nan 21 22 19 17 nan 20 19 18
48 49 50 49 46 49 46 43 42 42 41 41 40 39 38 38 37 36 34 32 32 33 34 35 36 37 36 38 38 38 37 36 34 31 28 27 27 27 26 24 27 30 29 27 26 23 23 24 23 23 22 20 19 18 19 18 17 16 14 13 13 14 16 17 17 11 7 6 nan nan nan 9 nan nan nan nan nan nan nan nan 16 15 17 19 19
50 50 50 46 42 44 42 40 41 41 40 40 39 39 38 37 36 35 34 33 33 32 33 35 36 37 37 39 40 40 40 39 36 33 31 29 27 26 27 26 25 27 29 27 25 23 23 24 23 23 21 19 18 18 18 18 18 17 16 15 16 19 20 20 15 7 7 7 7 nan 7 9 nan nan nan 20 21 nan nan 20 20 20 20 19 19
50 49 45 38 39 40 38 38 38 39 39 39 39 38 37 37 36 34 33 33 33 33 34 35 35 37 39 39 41 42 41 39 36 34 32 30 28 26 26 27 27 29 29 28 26 24 24 24 24 22 21 18 17 18 18 18 18 18 18 16 18 18 19 18 11 9 8 7 7 6 nan nan nan 13 19 nan nan 21 21 22 22 23 22 22 20
47 42 38 34 34 36 35 35 37 38 38 38 38 38 37 36 35 34 33 31 32 33 34 34 35 36 38 39 39 39 38 37 35 33 32 30 29 28 26 26 27 29 30 29 27 26 25 25 24 21 20 18 17 17 18 18 19 20 20 16 18 20 19 17 11 10 9 8 7 6 nan nan 9 16 19 20 19 20 21 22 nan 23 23 23 22
41 36 33 33 32 35 34 34 35 36 37 36 37 36 36 35 34 33 32 31 31 33 32 34 34 35 35 35 36 36 36 35 33 31 29 28 29 29 28 28 28 29 30 30 28 27 26 25 24 21 19 18 17 17 18 19 19 20 21 17 17 20 20 15 13 11 10 9 8 6 nan 7 8 15 17 18 18 19 19 20 21 22 22 23 23
35 33 32 31 31 31 35 33 33 35 36 35 35 35 34 33 32 31 30 31 33 33 33 35 35 34 35 35 35 36 35 34 32 29 27 26 27 27 27 27 28 30 31 31 29 28 28 25 23 21 19 18 17 18 19 20 19 21 21 18 17 20 19 12 12 11 10 9 8 7 7 7 11 12 16 18 18 19 19 19 20 nan nan nan nan
31 31 30 29 29 29 30 32 36 36 36 36 34 33 32 32 31 30 30 31 32 32 33 33 34 34 33 33 34 35 35 34 31 29 27 26 25 26 25 26 28 29 29 31 32 30 30 27 22 21 20 19 18 18 19 20 20 20 21 17 16 19 20 15 13 11 10 9 8 7 6 7 11 12 14 16 17 17 nan nan nan nan nan nan nan
28 27 28 29 29 28 28 29 33 39 36 35 33 31 32 31 30 29 29 31 32 33 33 33 33 33 32 32 33 33 34 33 30 28 26 24 24 24 25 27 28 29 29 30 32 32 32 28 24 22 20 20 19 19 20 20 19 20 20 18 17 19 20 17 14 12 11 9 8 8 8 8 11 11 13 15 15 16 16 nan nan nan nan nan nan
26 25 27 29 28 28 29 30 32 32 31 31 31 31 30 30 29 28 29 30 31 32 31 31 31 31 32 32 32 32 32 32 30 28 26 24 23 23 23 26 28 30 33 32 32 33 30 28 25 23 21 20 20 20 20 19 19 19 19 19 20 20 20 20 15 12 11 10 10 8 9 9 11 12 13 13 15 16 16 16 16 17 nan nan nan
25 26 28 29 28 29 29 30 31 30 29 26 25 27 31 31 29 29 29 29 30 31 32 32 32 32 32 31 31 31 30 30 29 27 25 24 24 23 22 24 26 29 35 37 36 34 30 27 25 23 22 22 21 22 21 19 19 19 20 20 22 20 22 18 15 13 13 12 10 9 8 12 12 13 13 13 14 14 15 16 16 16 nan nan nan
25 27 28 28 29 30 30 30 30 28 26 24 25 26 29 31 29 29 29 30 32 33 32 32 32 31 30 30 31 28 29 27 28 24 25 25 25 24 28 28 29 30 32 36 38 36 30 27 24 22 22 22 22 22 21 19 19 19 20 22 23 23 19 17 16 15 14 12 11 9 11 15 14 15 14 14 14 15 15 15 15 15 16 nan nan
24 27 27 28 30 32 31 29 28 27 25 25 25 26 27 30 28 29 31 32 33 34 33 33 31 28 28 29 28 24 23 23 24 22 26 23 24 28 31 31 32 29 26 30 35 33 29 25 23 22 22 22 21 22 21 18 18 18 21 23 25 21 19 18 18 16 14 13 12 10 14 15 16 16 16 15 15 14 15 15 14 15 15 16 16
25 26 27 29 31 31 31 29 28 27 26 26 25 23 23 26 23 24 25 28 30 30 28 26 28 25 29 27 25 23 22 22 23 25 23 24 26 28 28 29 30 28 25 26 30 30 27 25 24 23 21 21 21 nan 18 17 16 17 21 24 23 21 20 19 19 17 14 13 13 11 16 16 17 17 17 16 15 15 14 15 16 16 15 15 16
26 27 27 29 29 30 30 29 28 28 28 27 25 23 24 24 24 24 24 26 27 28 27 27 26 26 25 25 25 23 22 21 22 23 23 27 26 27 26 28 29 26 23 24 28 29 28 26 24 23 21 21 21 nan 18 16 12 16 20 21 21 21 20 19 19 19 16 13 13 14 16 17 18 18 17 17 16 15 15 16 17 17 17 16 16
26 26 28 28 28 29 30 30 29 29 29 27 27 26 26 25 24 24 24 24 25 25 26 26 25 24 24 24 24 23 21 20 24 27 26 24 25 27 27 26 25 23 22 21 27 28 27 26 24 22 20 19 nan nan nan 16 13 13 18 20 20 20 20 19 20 21 17 14 14 16 18 18 18 18 17 17 17 17 17 18 19 18 18 17 16
25 27 28 29 28 30 31 30 30 30 30 28 28 27 26 25 25 25 23 22 23 24 24 24 23 22 23 22 22 20 19 19 20 23 23 23 24 24 23 20 18 17 19 18 20 22 22 21 18 18 18 20 22 23 23 18 14 15 18 19 19 19 19 20 22 22 18 16 15 18 18 19 19 19 18 18 19 19 19 19 19 19 18 18 18
26 27 28 29 28 30 30 31 31 30 30 28 28 27 26 25 26 25 22 21 23 24 23 22 20 19 18 18 18 18 17 18 19 20 21 21 21 20 18 15 14 14 15 17 18 20 21 20 18 18 18 20 23 25 23 20 17 18 19 20 19 19 20 22 23 23 20 17 16 19 19 20 20 20 20 20 21 20 20 20 20 20 19 19 20
26 28 26 28 28 29 30 31 32 31 31 29 28 26 24 25 25 23 21 21 22 22 21 18 16 15 15 15 16 15 16 16 17 18 18 17 16 15 13 11 12 13 14 18 19 20 21 20 18 18 18 20 22 nan nan 22 20 19 19 21 20 21 22 23 23 22 20 18 17 19 20 21 20 21 21 21 21 21 21 21 21 21 20 20 21
26 27 24 26 27 29 30 31 31 31 31 30 29 27 25 25 24 23 20 21 21 19 17 15 13 13 12 13 14 15 15 16 15 17 16 14 12 11 10 12 13 14 15 18 nan 20 20 19 18 18 19 21 22 nan nan 24 22 20 20 21 22 23 23 22 22 21 20 18 19 20 21 21 21 22 22 23 23 23 23 22 22 22 21 22 22
27 26 24 28 29 29 30 30 29 30 29 29 29 27 26 25 23 20 18 19 18 nan 13 12 12 12 12 13 14 14 14 16 16 16 16 14 12 11 12 14 14 14 15 nan 17 nan 18 17 18 19 19 nan nan nan nan 23 22 21 21 21 23 24 22 21 20 21 21 20 20 21 23 22 23 24 25 25 25 25 25 24 23 23 24 24 24
25 24 24 27 29 31 30 29 27 28 28 27 26 26 24 23 19 16 15 16 15 13 12 12 13 14 13 11 10 12 15 16 16 15 16 14 12 12 13 13 12 nan nan nan 14 nan nan nan nan nan nan nan nan nan 24 24 23 21 20 22 23 22 20 20 21 22 22 22 21 21 24 26 25 26 26 26 26 26 25 26 26 25 25 24 24
26 25 24 27 29 30 29 28 26 27 26 25 24 23 21 nan 15 11 12 14 13 13 12 13 13 12 11 9 11 13 14 14 14 13 13 12 11 11 10 10 11 12 13 14 nan nan nan nan nan nan nan nan nan nan nan 25 23 22 21 22 22 21 20 19 20 21 22 22 22 22 23 27 28 28 28 27 25 26 27 26 27 26 24 24 24
26 25 24 26 29 30 29 27 26 26 25 23 22 21 18 14 nan 10 11 13 13 12 12 11 11 11 11 11 12 12 11 11 11 10 10 10 9 9 9 10 10 10 12 12 13 nan nan 12 13 nan nan nan nan nan nan nan nan 22 21 21 20 20 18 17 18 19 21 21 22 23 25 25 26 27 28 26 26 26 25 24 24 25 24 23 24
25 25 26 26 28 29 28 26 25 24 23 22 20 18 15 13 12 11 11 11 11 11 10 10 12 12 11 11 10 9 9 10 9 9 10 10 10 9 9 9 9 9 10 12 13 12 11 10 nan nan nan nan nan nan nan nan nan nan 19 17 19 19 17 16 16 17 19 20 22 22 25 24 25 27 28 27 27 25 25 24 23 23 23 23 22
28 25 27 27 27 27 26 25 24 23 21 20 19 16 13 12 11 10 11 11 11 11 11 12 12 11 10 10 8 8 10 9 9 9 10 10 9 9 8 8 8 9 10 11 11 10 10 nan nan nan 13 nan nan nan nan nan nan nan nan 15 17 17 16 16 15 15 16 19 19 21 23 24 24 24 25 27 26 25 26 23 26 24 22 20 21
29 27 26 27 28 27 26 25 25 21 19 18 16 13 11 10 9 10 10 11 11 11 12 12 11 8 9 10 9 8 8 8 7 9 9 9 9 8 8 8 8 8 10 10 11 10 10 10 nan nan nan nan nan nan nan nan nan nan nan 15 15 17 16 16 18 17 16 17 18 19 21 23 22 23 24 25 25 26 24 24 26 24 21 19 19
28 28 28 28 27 26 26 26 25 20 17 15 12 10 10 9 9 9 10 10 11 11 12 11 9 8 9 10 8 8 7 6 7 8 9 8 8 8 6 7 8 9 9 10 11 11 9 8 7 nan nan 12 nan nan nan nan nan nan nan 16 15 16 17 18 13 9 12 13 17 19 20 20 20 21 22 nan 22 23 27 28 29 27 27 27 25
32 29 28 28 27 26 28 26 22 18 15 12 11 10 10 9 8 9 9 10 10 11 11 10 9 9 9 8 7 6 6 7 8 9 9 8 9 8 7 8 9 9 10 11 11 10 10 8 7 6 8 10 11 nan nan nan nan nan nan nan 16 15 15 13 11 12 12 13 17 18 18 17 17 20 19 20 21 22 25 29 28 28 27 28 27
30 26 26 27 26 27 27 24 19 16 13 12 10 10 10 10 9 9 9 9 10 11 10 10 9 8 7 6 5 5 7 8 9 9 9 9 9 9 9 9 9 11 11 11 11 10 8 9 8 nan nan 8 nan 11 nan nan 8 nan nan nan 16 13 13 14 12 11 13 16 19 17 15 16 17 18 18 19 20 22 23 25 29 28 27 27 29
21 21 25 28 29 28 26 22 19 17 14 14 13 12 12 12 11 9 9 10 12 13 11 9 7 6 5 5 5 5 7 9 9 10 11 10 10 10 10 9 10 10 11 12 12 12 10 8 8 nan nan 6 nan nan nan 8 9 9 12 14 14 13 12 12 11 12 17 18 13 13 15 17 18 18 17 18 18 21 23 23 23 22 23 29 29
21 23 24 24 23 23 21 19 18 18 16 15 15 13 11 9 9 11 10 10 13 12 10 8 6 5 5 5 5 5 7 9 10 10 11 11 11 10 10 11 11 11 12 13 12 12 12 11 nan nan nan nan 7 7 7 10 10 9 9 12 13 12 14 12 11 13 15 12 10 12 14 15 17 17 17 17 17 19 21 22 22 22 21 25 28
19 17 16 14 15 16 16 16 17 18 16 16 16 15 12 12 11 9 10 11 11 11 9 7 5 5 6 6 6 7 8 9 9 10 11 11 11 11 11 11 11 11 11 12 12 13 13 12 nan nan nan nan 6 5 5 6 nan 7 7 9 11 13 14 14 13 14 12 7 10 12 9 13 13 16 16 14 15 18 20 21 23 21 20 20 22
24 25 24 20 18 18 14 11 12 14 14 16 18 17 15 12 12 11 12 12 12 10 8 6 4 5 6 6 6 7 7 9 10 10 12 12 12 11 11 11 11 12 12 12 13 14 14 13 nan nan nan nan nan 4 4 nan nan 5 6 7 9 11 12 13 13 13 10 9 10 12 8 10 12 12 13 13 14 17 19 20 20 19 19 nan nan
22 30 32 31 27 21 14 10 9 10 11 14 17 18 19 17 15 14 12 13 13 11 10 9 7 5 5 5 6 7 8 10 11 11 13 12 12 12 11 11 12 13 13 13 14 14 13 13 nan nan nan nan nan 5 5 6 5 6 nan nan 7 9 9 10 10 12 10 8 10 10 9 10 11 13 12 12 13 16 17 16 17 16 nan nan nan
31 28 31 34 30 24 17 13 11 11 13 14 14 16 20 21 18 15 14 14 12 13 12 12 10 9 7 7 5 7 9 11 12 12 13 13 13 13 13 12 12 12 12 13 13 14 13 13 nan nan nan nan nan 4 7 7 nan nan 8 nan 7 9 9 9 10 10 9 10 11 11 5 7 12 15 12 12 14 15 15 15 17 16 16 nan nan
29 30 32 34 30 29 24 20 17 18 18 16 16 17 21 23 20 18 17 18 20 17 15 13 11 10 10 7 4 6 9 11 12 12 13 13 13 13 13 12 12 12 12 12 12 12 13 12 11 10 nan nan nan nan nan nan nan nan nan nan nan nan 7 7 9 12 12 10 10 8 8 10 14 15 13 15 15 15 15 16 16 nan nan nan nan
29 28 21 24 28 28 27 24 22 23 20 15 16 17 18 20 19 18 18 18 19 16 13 11 12 12 7 8 8 5 8 10 11 12 11 12 12 12 12 12 11 10 10 11 12 13 13 12 10 9 nan nan nan nan nan nan nan nan nan nan nan nan nan 7 11 nan 11 12 12 12 11 12 14 14 14 15 16 15 14 15 15 nan nan nan nan
26 23 19 19 23 27 27 25 23 21 18 14 13 15 18 20 18 17 18 18 17 14 15 14 13 13 11 9 7 5 6 9 10 11 10 10 10 10 10 10 10 10 10 11 12 12 13 12 12 11 9 10 nan 7 nan nan nan nan 10 9 8 9 nan nan nan nan 13 13 14 13 15 15 15 16 16 16 16 16 15 15 nan nan nan nan nan
23 21 19 20 21 25 27 25 20 19 18 16 13 14 18 20 21 21 19 18 15 14 15 14 15 15 15 13 10 6 6 8 10 10 9 9 9 8 9 9 10 10 11 11 11 12 15 14 15 13 14 12 9 9 7 8 nan nan 11 11 11 14 nan nan nan nan nan 14 14 15 17 17 18 17 17 16 16 17 nan nan nan nan nan nan nan
21 21 20 21 21 23 21 17 15 16 18 17 15 16 19 20 21 21 20 17 17 16 16 17 17 18 20 18 14 10 10 10 10 10 10 9 8 8 9 10 11 12 13 13 12 13 15 16 17 16 15 14 13 13 12 9 nan nan 12 12 13 14 nan nan nan nan nan nan nan 13 15 16 19 18 18 17 nan nan nan nan nan nan nan nan nan
21 20 19 20 20 18 12 11 12 11 15 17 16 16 18 21 22 20 18 18 19 19 18 18 19 20 22 19 15 13 11 12 12 12 12 10 9 8 10 11 12 14 15 15 15 15 15 16 16 16 16 16 15 16 14 12 11 11 13 14 13 nan nan nan nan nan nan nan nan nan nan nan 18 16 18 nan nan nan nan nan nan nan nan nan nan
22 20 19 18 16 13 12 15 15 12 14 17 18 17 19 21 22 20 19 19 18 18 19 20 21 22 22 19 15 nan 13 13 nan nan nan nan nan nan 12 12 14 15 16 17 16 17 17 16 17 18 18 19 17 17 16 16 14 13 14 15 15 nan nan nan nan nan nan nan nan nan nan nan nan 20 18 nan nan nan nan nan nan nan nan nan nan
Wind_Direction
291 296 299 305 304 302 303 299 298 295 294 293 292 293 293 294 294 296 297 296 295 295 297 298 299 298 299 301 303 305 306 307 305 303 302 301 299 297 295 294 293 294 296 296 296 297 297 294 293 292 289 288 289 287 286 288 289 286 285 283 284 282 278 275 271 268 nan nan nan nan 246 247 249 249 251 251 248 248 243 237 229 226 226 247 256
296 296 297 302 303 302 301 299 298 296 293 291 293 295 295 295 295 297 297 296 296 295 297 299 300 300 301 303 305 306 306 306 305 304 303 299 298 297 295 293 292 293 295 296 295 296 296 294 292 289 288 287 287 288 287 290 289 287 284 284 284 280 276 272 270 269 270 nan nan nan 245 249 253 250 249 250 248 246 243 240 239 232 228 245 251
290 294 297 303 305 303 302 300 299 297 294 294 295 296 296 295 296 297 296 295 295 298 298 299 300 302 302 304 304 305 306 307 306 305 303 300 298 297 295 293 292 293 292 290 292 294 292 289 288 287 287 288 289 289 286 288 289 287 287 287 282 277 272 269 267 266 263 253 254 249 nan nan 248 250 251 247 247 244 243 241 240 236 237 246 247
290 294 297 303 303 303 303 300 297 296 296 296 297 297 297 297 298 297 296 296 297 298 299 300 301 302 303 304 304 305 306 307 308 307 304 302 299 297 294 293 293 293 292 292 293 293 292 291 289 289 289 288 287 285 285 287 288 286 287 285 285 281 275 272 270 268 265 256 248 238 220 nan 229 253 248 250 251 249 244 241 239 241 238 239 251
289 292 295 297 298 301 300 297 296 296 297 298 299 300 299 299 299 298 296 296 297 299 299 301 301 302 303 303 303 304 305 305 307 305 301 301 300 297 295 294 294 295 294 292 293 293 290 290 291 289 288 286 285 284 284 286 286 287 287 286 289 287 270 272 276 270 268 257 243 nan nan nan nan 242 251 248 244 244 244 239 236 237 238 235 238
287 289 290 291 295 300 298 296 296 297 296 298 299 299 300 299 299 297 295 295 296 298 300 301 301 302 302 304 305 306 305 303 303 300 298 296 295 295 295 295 294 294 295 296 290 287 290 293 292 290 287 284 284 283 281 279 280 281 282 285 290 287 270 260 269 274 270 248 227 nan nan nan nan nan 258 252 244 244 245 243 240 242 239 239 240
285 283 286 288 294 298 297 295 295 295 294 295 297 298 299 298 296 294 292 293 296 298 300 301 301 302 302 303 304 304 306 302 299 301 301 302 301 293 295 295 295 296 296 294 292 291 294 296 295 290 287 283 282 281 280 278 277 277 282 288 287 281 271 268 278 282 263 236 nan nan nan nan nan nan 262 252 256 251 243 243 239 238 239 240 240
279 280 284 289 293 297 297 294 293 292 292 293 296 298 297 296 293 292 291 295 297 299 300 300 300 301 302 302 304 304 303 300 298 295 302 301 292 290 295 298 298 296 295 293 291 293 296 296 295 292 286 281 280 277 276 277 276 277 276 267 261 256 266 276 282 282 259 nan nan nan nan nan nan 230 249 250 259 254 250 242 239 240 240 239 239
279 282 284 289 292 296 295 291 289 289 289 292 295 296 295 293 290 289 290 294 297 299 299 299 300 300 301 302 303 304 300 299 297 294 293 292 290 287 287 289 287 292 291 289 290 292 294 295 293 287 283 278 276 276 273 272 272 271 269 264 262 276 308 303 288 271 251 239 nan nan nan nan nan nan nan nan nan 243 240 232 230 nan 245 243 241
281 281 284 287 287 290 290 288 288 288 289 292 294 294 291 289 288 288 290 293 296 298 299 299 300 300 301 301 302 301 300 300 298 296 292 289 287 288 290 290 289 290 291 291 293 293 290 288 284 280 277 274 271 270 268 267 267 265 262 259 261 277 296 294 281 264 253 246 nan nan nan 242 nan nan nan nan nan nan nan nan 245 242 239 244 244
282 281 283 285 286 286 287 286 287 288 290 293 293 292 289 287 287 288 292 296 297 297 299 300 299 300 301 302 303 302 301 301 300 294 290 291 292 290 287 286 289 293 294 294 294 292 288 285 282 280 277 274 272 268 266 264 263 260 256 257 270 280 283 281 273 257 253 248 240 nan 244 247 nan nan nan 268 267 nan nan 248 246 245 242 244 246
280 281 282 281 285 283 284 283 285 287 291 292 292 289 288 288 288 291 295 297 298 298 298 298 297 299 301 301 301 301 300 298 294 292 292 293 293 289 286 284 286 290 293 295 293 290 286 284 282 281 279 276 271 267 264 261 259 258 255 258 274 276 273 272 265 260 251 250 244 232 nan nan nan 259 270 nan nan 256 254 252 248 245 244 246 248
281 281 278 275 275 280 279 281 283 287 290 290 290 289 289 289 291 295 297 296 298 298 297 297 297 298 299 299 299 296 294 293 293 294 297 298 294 290 290 292 293 293 292 293 294 292 288 285 283 280 278 275 268 264 261 257 255 254 254 252 280 281 279 275 264 261 255 247 238 234 nan nan 244 257 257 258 258 255 250 246 nan 252 250 248 248
279 277 274 272 272 279 277 280 283 288 289 291 290 289 290 292 295 297 297 298 296 296 295 296 296 296 294 293 292 289 289 290 291 293 295 296 295 294 294 296 297 296 293 293 293 291 286 282 281 278 272 268 263 257 256 253 252 252 254 251 276 283 278 269 267 263 259 251 239 237 nan 237 237 268 270 264 261 259 256 254 251 251 251 252 252
275 272 271 271 271 272 281 283 286 290 290 289 288 289 293 294 296 297 297 297 297 295 295 296 293 292 292 290 288 286 287 289 291 292 292 292 291 292 293 294 296 295 294 291 289 287 282 278 275 272 267 261 256 252 250 248 247 248 251 260 273 281 276 268 267 263 261 256 242 236 247 249 265 256 263 269 268 265 261 257 254 nan nan nan nan
271 270 271 270 270 274 277 289 290 288 287 289 289 291 295 297 298 299 298 297 296 295 293 290 289 290 289 287 286 287 287 287 288 289 289 290 290 291 293 293 291 292 292 291 289 285 279 272 268 264 259 254 250 248 247 246 243 244 250 256 275 276 278 268 265 261 256 255 247 234 236 245 270 275 274 271 268 265 nan nan nan nan nan nan nan
270 267 268 269 269 271 275 278 285 289 288 288 289 292 297 298 299 298 296 295 294 293 290 289 288 289 289 289 288 286 286 285 286 285 285 286 286 287 289 291 291 290 291 290 291 287 281 273 265 258 253 249 248 247 245 246 244 242 245 252 279 278 279 270 261 258 258 255 249 239 233 237 263 272 275 275 275 272 270 nan nan nan nan nan nan
264 262 266 269 270 270 270 273 278 278 280 286 290 294 295 296 295 294 293 292 292 291 289 287 289 291 291 289 286 285 285 287 287 286 286 285 283 282 283 285 287 288 287 286 289 288 283 276 266 256 251 249 247 246 243 242 243 241 242 255 282 280 278 269 258 255 253 255 249 242 241 260 262 264 270 271 272 271 266 266 265 263 nan nan nan
263 263 266 269 269 269 270 271 274 274 276 277 280 289 293 294 291 293 294 292 291 291 290 291 292 293 292 288 285 285 286 287 287 286 286 285 282 278 279 281 285 291 289 284 282 281 278 271 262 255 250 248 246 244 241 237 237 235 239 258 283 279 276 262 257 251 245 247 250 250 250 268 263 266 267 271 272 272 269 264 263 261 nan nan nan
262 265 265 264 265 267 271 271 272 274 273 273 277 283 291 294 295 293 291 291 293 291 287 288 289 290 289 287 287 287 289 286 286 282 280 280 278 276 279 278 280 285 289 286 282 278 273 266 259 255 253 252 248 245 243 235 234 232 235 256 282 275 259 258 253 247 248 248 246 248 264 275 274 269 262 255 258 260 261 263 265 263 259 nan nan
256 260 260 260 262 267 273 273 274 274 273 275 276 283 292 297 293 291 292 291 291 291 288 286 285 284 283 284 278 277 275 274 276 277 277 268 271 275 275 275 274 279 281 283 282 276 268 264 262 256 253 253 249 247 245 238 232 235 241 259 269 256 257 255 255 250 243 243 242 245 273 272 270 267 263 259 257 258 261 264 261 263 265 263 262
261 260 259 261 263 268 275 276 274 275 275 274 276 282 286 288 281 281 282 287 290 286 281 278 278 270 278 274 269 267 266 269 274 276 268 267 267 270 270 270 274 275 274 278 277 269 264 262 259 258 255 254 250 nan 255 245 239 245 250 261 258 257 254 258 260 257 243 239 239 249 272 268 268 266 265 262 258 260 259 258 258 260 264 262 261
266 268 263 263 266 271 276 278 275 275 274 272 273 277 279 279 279 281 282 285 283 277 272 269 264 267 265 265 265 265 268 269 271 274 267 272 268 269 268 271 275 274 273 273 267 263 262 258 254 255 256 256 262 nan 260 256 247 245 252 260 259 258 257 257 260 259 251 241 238 261 263 264 267 265 263 263 262 258 260 260 260 258 258 259 260
270 266 265 265 271 274 278 277 277 276 273 271 271 274 277 279 282 282 281 279 276 275 272 270 267 266 265 263 263 265 266 267 282 283 276 268 269 268 267 268 269 268 262 251 251 255 254 250 249 250 254 261 nan nan nan 260 255 249 255 260 260 262 263 260 259 259 257 247 242 267 265 264 264 264 264 263 259 256 255 257 258 259 260 264 264
263 264 264 271 274 276 280 279 277 276 275 274 276 276 278 281 281 282 282 280 277 276 274 271 270 266 264 264 265 266 265 265 266 267 266 268 265 260 253 245 241 244 249 243 244 249 251 251 249 251 256 261 261 261 264 265 258 251 251 255 257 259 260 257 254 256 254 249 248 267 263 257 260 263 263 259 259 254 253 254 257 258 259 259 260
261 269 268 272 274 277 278 278 277 277 277 279 280 282 285 285 285 284 282 277 277 276 274 272 269 267 267 267 266 266 266 268 268 268 264 266 267 261 252 241 238 240 244 253 252 253 253 253 255 255 256 259 260 261 266 271 261 249 250 250 251 250 249 248 247 247 245 246 249 269 264 261 263 265 262 260 258 255 255 256 257 258 258 260 263
263 271 267 273 275 277 281 279 278 277 279 281 282 282 285 286 285 286 283 280 277 277 275 272 270 272 273 273 269 268 268 268 265 264 264 264 267 265 258 243 247 245 247 258 256 256 257 256 255 257 259 260 260 nan nan 272 267 257 247 249 247 245 243 242 243 244 245 244 248 268 261 266 266 265 264 261 260 258 257 256 257 256 257 260 261
259 273 273 278 282 285 284 281 281 281 280 282 282 282 281 284 290 290 285 285 281 278 277 273 271 273 272 271 270 273 275 269 264 267 266 263 263 260 259 259 258 256 253 257 nan 259 258 257 256 254 258 261 260 nan nan 271 267 261 252 247 246 243 242 241 243 241 242 242 242 252 254 262 263 266 265 262 262 257 256 256 255 254 253 253 255
269 277 279 287 287 284 285 284 288 288 283 283 283 279 280 283 286 291 291 289 281 nan 278 273 271 269 268 272 277 278 269 267 268 268 265 262 263 264 265 265 265 264 262 nan 259 nan 261 260 258 259 261 nan nan nan nan 264 264 261 258 250 247 248 248 248 245 240 237 239 243 244 248 257 260 261 263 264 264 263 260 257 255 254 253 252 250
274 272 277 281 286 289 289 293 295 293 289 287 283 281 283 287 290 297 294 283 279 279 275 273 272 270 269 270 270 266 267 269 269 265 266 265 264 263 267 272 275 nan nan nan 262 nan nan nan nan nan nan nan nan nan 264 264 263 263 262 256 251 252 250 249 247 245 240 238 241 242 249 251 254 257 258 262 266 265 262 262 259 257 255 255 254
272 278 279 282 287 290 288 294 298 300 295 291 285 282 283 nan 293 299 284 282 280 279 274 268 267 263 260 257 261 264 266 262 262 262 260 265 266 270 271 269 271 269 268 270 nan nan nan nan nan nan nan nan nan nan nan 263 263 262 260 257 255 255 253 248 248 249 248 245 243 241 243 249 249 254 258 262 263 264 264 266 264 262 261 260 258
270 276 275 280 287 291 291 296 301 301 298 291 284 284 287 290 nan 286 279 279 278 271 267 259 257 246 246 259 262 260 257 255 258 262 270 274 279 279 275 270 269 265 268 276 279 nan nan 280 275 nan nan nan nan nan nan nan nan 262 263 259 254 254 257 256 256 255 250 247 245 240 240 243 249 252 258 260 258 261 264 267 265 265 265 264 261
264 272 273 281 291 293 295 299 300 298 296 291 286 285 287 289 287 280 274 273 266 258 250 245 245 248 255 257 251 245 249 264 268 279 284 285 287 288 286 282 277 272 268 276 279 283 284 278 nan nan nan nan nan nan nan nan nan nan 262 262 259 255 257 256 259 261 253 248 246 240 238 241 244 248 250 253 259 261 255 255 268 265 263 266 263
267 265 270 283 289 289 292 296 297 296 294 287 287 290 290 283 275 268 262 257 249 245 238 238 244 246 242 231 231 243 255 267 277 275 278 282 287 294 295 290 282 276 273 272 273 282 284 nan nan nan 265 nan nan nan nan nan nan nan nan 262 256 253 257 258 256 257 248 243 244 239 238 240 242 242 242 248 250 255 259 254 263 270 270 268 265
268 270 279 285 289 292 294 296 299 296 295 293 293 288 280 279 269 254 248 241 237 231 230 232 235 235 230 231 237 253 257 266 273 280 278 284 288 286 293 298 287 281 278 278 283 280 280 280 nan nan nan nan nan nan nan nan nan nan nan 258 249 241 242 245 233 225 227 234 243 240 237 239 242 243 242 241 246 255 256 254 266 273 272 264 265
277 275 274 282 292 294 296 293 297 301 298 295 283 276 275 264 249 245 233 230 230 226 224 222 224 224 233 240 248 256 257 266 270 271 275 276 278 281 284 290 289 280 277 279 280 281 278 273 264 nan nan 266 nan nan nan nan nan nan nan 249 238 233 238 241 248 245 239 236 236 235 234 237 241 243 244 nan 245 248 251 249 246 246 247 246 250
265 272 282 289 293 293 291 290 294 300 295 282 271 261 260 254 242 235 234 233 233 229 223 220 224 226 228 243 249 254 263 267 264 261 269 264 268 272 280 283 279 279 277 275 273 282 285 273 260 262 267 279 271 nan nan nan nan nan nan nan 236 237 241 250 245 238 237 240 238 234 234 234 240 241 239 245 246 246 245 245 243 243 246 247 243
247 265 277 282 283 281 280 283 284 289 283 268 264 261 253 246 234 232 230 238 230 223 222 219 218 218 230 243 246 254 261 264 262 262 261 259 263 269 269 268 266 268 273 270 271 267 263 273 270 nan nan 271 nan 282 nan nan 286 nan nan nan 234 233 230 229 231 241 250 239 227 225 227 232 238 238 238 241 246 246 244 238 238 236 240 247 247
250 254 264 257 260 266 271 280 280 278 265 252 250 248 246 237 226 230 231 226 218 213 216 219 214 215 218 224 233 243 251 255 259 256 259 257 257 259 261 266 267 267 271 271 273 275 272 256 263 nan nan 256 nan nan nan 283 283 276 252 236 232 225 221 219 223 238 240 235 237 235 229 234 237 238 238 239 241 245 246 244 242 242 239 242 246
254 257 251 247 255 265 270 269 271 268 256 247 245 243 242 237 230 223 222 212 204 204 207 210 212 203 200 216 221 233 244 254 257 256 258 258 258 258 257 257 263 266 269 274 276 278 280 271 nan nan nan nan 251 263 271 278 268 267 255 238 228 221 217 222 234 247 245 238 247 239 241 240 241 241 241 243 248 250 250 252 253 252 250 247 246
313 295 274 259 256 268 278 276 269 270 260 251 244 244 248 234 220 226 219 210 208 212 217 209 203 196 202 218 225 240 248 257 262 264 263 262 258 258 258 254 258 264 267 273 275 278 277 274 nan nan nan nan 242 247 253 263 nan 251 239 234 225 212 219 231 241 243 244 238 240 244 239 246 241 245 245 245 248 250 251 248 249 249 246 247 243
336 330 324 316 289 282 290 278 264 266 259 250 242 239 237 235 229 226 220 219 226 235 224 216 212 212 219 229 236 246 258 266 267 264 264 265 265 264 264 265 263 262 263 266 269 269 271 272 nan nan nan nan nan 257 268 nan nan 257 274 236 220 215 224 233 234 236 239 235 249 255 262 262 250 248 247 249 249 248 244 244 245 246 246 nan nan
308 316 326 330 323 307 292 281 266 262 256 251 248 241 233 230 229 226 232 226 226 232 235 230 232 233 232 242 250 259 266 267 270 268 267 265 268 269 267 264 262 261 260 264 266 271 274 278 nan nan nan nan nan 222 220 230 256 242 nan nan 222 226 207 217 220 229 233 229 250 256 251 254 255 252 257 254 252 251 252 250 250 244 nan nan nan
321 322 323 328 331 326 312 300 279 268 267 262 257 242 238 230 225 227 226 231 239 236 232 231 229 226 230 233 243 268 273 276 275 272 267 267 268 266 261 257 258 255 261 263 265 269 270 271 nan nan nan nan nan 210 209 220 nan nan 231 nan 227 226 228 216 220 212 225 238 238 252 246 254 260 261 244 250 253 253 252 251 252 247 244 nan nan
330 331 335 334 334 333 324 311 287 276 275 272 260 247 238 229 227 223 223 224 225 228 231 222 220 215 221 232 256 268 278 279 277 275 273 273 270 268 266 261 257 253 256 260 265 271 273 272 274 274 nan nan nan nan nan nan nan nan nan nan nan nan 221 226 225 210 214 228 234 251 244 248 253 250 258 252 251 249 252 251 251 nan nan nan nan
335 333 336 332 326 324 318 308 291 277 275 270 260 250 238 234 230 229 227 224 228 232 238 240 226 223 219 214 232 254 273 277 278 278 276 275 278 277 272 269 263 258 258 260 260 261 268 274 277 276 nan nan nan nan nan nan nan nan nan nan nan nan nan 229 227 nan 217 227 231 235 235 244 258 254 251 258 257 249 243 248 251 nan nan nan nan
330 323 322 318 317 315 312 308 299 278 264 262 259 246 234 229 232 233 231 235 238 222 228 235 239 218 225 236 233 232 265 279 273 270 271 274 275 279 280 279 274 269 258 257 260 266 270 271 272 272 277 268 nan 266 nan nan nan nan 234 230 223 221 nan nan nan nan 235 222 223 225 231 236 248 255 256 257 260 255 249 255 nan nan nan nan nan
313 313 314 312 312 307 305 300 287 268 255 260 259 244 235 227 229 230 234 238 241 237 234 235 230 235 243 238 230 229 243 246 261 252 253 256 260 268 274 278 281 278 273 272 270 266 266 262 268 271 271 272 273 275 273 274 nan nan 237 234 232 239 nan nan nan nan nan 252 235 226 229 234 244 247 254 259 261 265 nan nan nan nan nan nan nan
314 317 316 315 316 312 307 299 288 265 254 255 250 235 231 230 231 234 236 232 235 236 230 227 236 239 242 228 222 222 229 227 228 239 243 246 250 263 271 275 280 280 278 276 272 272 275 275 273 272 277 274 270 263 268 282 nan nan 264 251 251 242 nan nan nan nan nan nan nan 239 242 240 245 243 250 252 nan nan nan nan nan nan nan nan nan
317 315 316 320 324 314 309 328 323 282 255 248 242 233 229 228 231 233 239 231 227 227 229 231 234 236 238 226 220 222 226 225 223 224 230 235 247 256 267 276 276 276 274 277 274 273 273 277 282 282 278 275 268 273 277 273 275 269 273 279 263 nan nan nan nan nan nan nan nan nan nan nan 255 240 243 nan nan nan nan nan nan nan nan nan nan
318 318 315 316 318 302 294 324 323 279 252 243 235 227 221 221 227 229 231 233 230 232 231 228 230 232 235 225 222 nan 220 226 nan nan nan nan nan nan 257 269 271 271 271 272 275 276 277 279 278 277 279 278 275 272 267 268 270 269 269 279 281 nan nan nan nan nan nan nan nan nan nan nan nan 257 243 nan nan nan nan nan nan nan nan nan nan